Résultats

Cross de la Nativititée : C11 : 6em & cm2 Filles. Édition 2017.

1.2 Km
28/04/2017 à 08:00:00 - ()
108 arrivant(e)s.


 
Les autres classements de cet évènement




Place▲ Temps Dossard Nom Prenom Categ #Categ Sexe #Sexe ClubVit Moy Diplôme Partager
1 00:05:04 1298 DE-MALLMANN MAYLIS POF 1 F 1 6 714.00
2 00:05:04 1205 TEULON ALEXANDRA BEF 1 F 2 6 314.00
3 00:05:06 1316 MORIN SCARLETT BEF 2 F 3 6 714.00
4 00:05:10 1247 MANGIATORDI ALICE BEF 3 F 4 6 513.00
5 00:05:16 1170 LESTRINGANT LUCIE BEF 4 F 5 6 213.00
6 00:05:19 1122 BAGNOULS CLEOPHEE BEF 5 F 6 6 113.00
7 00:05:22 1302 GOULESQUE MANON BEF 6 F 7 6 713.00
8 00:05:22 1210 WALLE AURORE BEF 7 F 8 6 313.00
9 00:05:23 1218 DUPUY CHARLOTTE BEF 8 F 9 6 413.00
10 00:05:23 1262 THOMASSET-BENOIT PHILOMENE BEF 9 F 10 6 513.00
11 00:05:26 1348 MARTINELLI MARIE POF 2 F 11 CM2 A13.00
12 00:05:35 1273 DE-MALLMANN LAURE BEF 10 F 12 6 612.00
13 00:05:35 1201 SAINT-YVES ANAE BEF 11 F 13 6 312.00
14 00:05:39 1286 ROUSSEL CHARLOTTE BEF 12 F 14 6 612.00
15 00:05:41 1280 MONTEILH PHILIPPINE BEF 13 F 15 6 612.00
16 00:05:41 1160 DEROUET LISE BEF 14 F 16 6 212.00
17 00:05:41 1246 MALLINJOUD ZOE BEF 15 F 17 6 512.00
18 00:05:43 1159 COLAS JULIETTE BEF 16 F 18 6 212.00
19 00:05:43 1195 LACAILLE FAUSTINE BEF 17 F 19 6 312.00
20 00:05:48 1154 BAZELAIRE MARINE BEF 18 F 20 6 212.00
21 00:05:49 1180 VIALE MATHILDE BEF 19 F 21 6 212.00
22 00:05:51 1268 BREMOND PAULINE BEF 20 F 22 6 612.00
23 00:05:57 1281 MOUSSE MARIE BEF 21 F 23 6 612.00
24 00:05:57 1321 RICHARD LISA BEF 22 F 24 6 712.00
25 00:05:57 1251 MOHR LENA BEF 23 F 25 6 512.00
26 00:05:58 1374 GEORGE-CRACOWSKI YSALINE POF 3 F 26 CM2 B12.00
27 00:05:59 1196 LUQUET-STASSI JEANNE POF 4 F 27 6 312.00
28 00:06:00 1126 CHAUVIN JULIE BEF 24 F 28 6 112.00
29 00:06:00 1206 TOLLU ANTOINETTE BEF 25 F 29 6 312.00
30 00:06:01 1299 DORMAELS AMBRE BEF 26 F 30 6 711.00
31 00:06:03 1132 GLADEL LEANE BEF 27 F 31 6 111.00
32 00:06:03 1285 RISSEL JEANNE BEF 28 F 32 6 611.00
33 00:06:05 1203 SCHUH MATHILDE BEF 29 F 33 6 311.00
34 00:06:06 1356 VIBOUD CAROLINE POF 5 F 34 CM2 A11.00
35 00:06:07 1167 HENRY JADE BEF 30 F 35 6 211.00
36 00:06:07 1191 GORIOUX CAMILLE BEF 31 F 36 6 311.00
37 00:06:08 1357 WEDCHA ELYSSA POF 6 F 37 CM2 A11.00
38 00:06:10 1144 SALOMEZ YVANA POF 7 F 38 6 111.00
39 00:06:11 1253 MOSKOVTCHENKO LISE BEF 32 F 39 6 511.00
40 00:06:12 1239 FINOCCHI FLAVIE BEF 33 F 40 6 511.00
41 00:06:13 1311 MAGAUD CHLOE BEF 34 F 41 6 711.00
42 00:06:13 1200 ROUSSEAU VICTOIRE BEF 35 F 42 6 311.00
43 00:06:14 1171 MANIFACIER EULALIE BEF 36 F 43 6 211.00
44 00:06:14 1163 FRACHOU YLONA BEF 37 F 44 6 211.00
45 00:06:14 1342 GOUGEON-FRANGEUL JEANNE POF 8 F 45 CM2 A11.00
46 00:06:16 1222 GIRARD CHLOE POF 9 F 46 6 411.00
47 00:06:16 1265 BARBEY--ROMANI MARIONA POF 10 F 47 6 611.00
48 00:06:17 1228 POMMIER MARION BEF 38 F 48 6 411.00
49 00:06:18 1235 VILLEDIEU LOUISE POF 11 F 49 6 411.00
50 00:06:20 1176 PIERAU EMYLIE BEF 39 F 50 6 211.00
51 00:06:22 1365 DE-GOUVION-SAINT-CYR LUCIE POF 12 F 51 CM2 B11.00
52 00:06:23 1344 LAMOINE LEONORE POF 13 F 52 CM2 A11.00
53 00:06:23 1353 SOLET ROSALIE POF 14 F 53 CM2 A11.00
54 00:06:23 1382 NIELSEN JESSICA POF 15 F 54 CM2 B11.00
55 00:06:23 1234 TROSSAT-COLLET CAMILLE POF 16 F 55 6 411.00
56 00:06:24 1243 GOMEZ JULIETTE BEF 40 F 56 6 511.00
57 00:06:24 1325 TORDO-COINCENOT ROSE POF 17 F 57 6 711.00
58 00:06:26 1278 LAMOUROUX LYLOU BEF 41 F 58 6 611.00
59 00:06:28 1315 MESANGUY PHILIPPINE BEF 42 F 59 6 711.00
60 00:06:29 1158 CARDELLI LOU BEF 43 F 60 6 211.00
61 00:06:31 1369 FOURNON FLAVIE POF 18 F 61 CM2 B11.00
62 00:06:31 1213 COQUEREAUX LISE BEF 44 F 62 6 411.00
63 00:06:32 1183 COULANGE ALICE BEF 45 F 63 6 311.00
64 00:06:33 1304 HOANG MARIE BEF 46 F 64 6 710.00
65 00:06:34 1162 DUC-JACQUET CHARLOTTE BEF 47 F 65 6 210.00
66 00:06:34 1324 SAUZET MANON BEF 48 F 66 6 710.00
67 00:06:37 1306 JUST LILAS BEF 49 F 67 6 710.00
68 00:06:39 1329 ATTIA KENZA POF 19 F 68 CM2 A10.00
69 00:06:39 1354 SPINNEWYN LILOU POF 20 F 69 CM2 A10.00
70 00:06:42 1231 RONGIER JOHANNA BEF 50 F 70 6 410.00
71 00:06:43 1225 LECINA JUDITH POF 21 F 71 6 410.00
72 00:06:44 1130 DECHEN MYA BEF 51 F 72 6 110.00
73 00:06:45 1317 NIDDAM AUDREY BEF 52 F 73 6 710.00
74 00:06:47 1297 CHAIX-MOUNET NAILOU BEF 53 F 74 6 710.00
75 00:06:47 1308 LAUTRAITE MARIE BEF 54 F 75 6 710.00
76 00:06:47 1254 NAVARRO NINA-ROSE BEF 55 F 76 6 510.00
77 00:06:47 1217 DUPE BAHIA POF 22 F 77 6 410.00
78 00:06:50 1330 BAUDART LUNA POF 23 F 78 CM2 A10.00
79 00:06:56 1307 LALY TARA BEF 56 F 79 6 710.00
80 00:06:57 1157 CARAVACA JULIA BEF 57 F 80 6 210.00
81 00:06:57 1270 CHAPELLE COLINE BEF 58 F 81 6 610.00
82 00:06:58 1300 DUMOND SOLENE POF 24 F 82 6 710.00
83 00:07:00 1386 ROUSSEL ROMANE POF 25 F 83 CM2 B10.00
84 00:07:00 1221 GAULT LOLA BEF 59 F 84 6 410.00
85 00:07:00 1148 TARNAUD LOUISE BEF 60 F 85 6 110.00
86 00:07:02 1263 TOMATIS CLEMENCE BEF 61 F 86 6 510.00
87 00:07:02 1249 MIALLET TESSA BEF 62 F 87 6 510.00
88 00:07:08 1361 CANONNE--SEINE ALIX POF 26 F 88 CM2 B10.00
89 00:07:09 1381 MELKONIAN CHRISTINA POF 27 F 89 CM2 B10.00
90 00:07:09 1138 MACHEREZ MANON BEF 63 F 90 6 110.00
91 00:07:10 1184 DE-GOUBERVILLE SARAH BEF 64 F 91 6 310.00
92 00:07:13 1349 MATHEZ-PELLERIN SCARLETT POF 28 F 92 CM2 A9.00
93 00:07:22 1377 IVACHEFF RAPHAELLE POF 29 F 93 CM2 B9.00
94 00:07:25 1136 KUNZ-DAMME CARLA BEF 65 F 94 6 19.00
95 00:07:27 1375 GREAUX LISA POF 30 F 95 CM2 B9.00
96 00:07:31 1127 CHINCHILLA-MORENO LAURA BEF 66 F 96 6 19.00
97 00:07:31 1174 MIQUEL ALIZEE BEF 67 F 97 6 29.00
98 00:07:37 1172 MANISCALCO EVA BEF 68 F 98 6 29.00
99 00:07:46 1214 DELSANTI LOU POF 31 F 99 6 49.00
100 00:07:46 1282 OMELKOVA VERONIKA BEF 69 F 100 6 69.00
101 00:07:52 1175 MORIN LYSE BEF 70 F 101 6 29.00